BEIDOU-3 M14

Last updated on Wed Aug 19 2026 00:02:49 GMT+0000 (Coordinated Universal Time)

1 43623U 18072B 26228.54028447 -.00000056 00000+0 00000+0 0 9990 2 43623 56.6810 60.6641 0004666 20.9891 339.0819 1.86230966 53776
UTC large
Height (km)
Speed (km/s)
/
Latitude / Longitude
Inclination (degrees)
Orbital Period (minutes)
Azimuth
Elevation
Range (km)
Doppler Factor

Next 0 passes for location: London (51.5072 / 0.1276)

No passes found over London.
BEIDOU-3 M14